Wind_Speed
15 13 10 10 16 10 10 7 10 8 6 8 11 10 14 14 13 12 10 10 9 5
21 16 12 15 13 11 11 8 11 12 9 10 11 13 10 12 14 16 16 14 13 11
22 16 17 15 15 13 11 10 10 18 13 10 13 11 10 10 12 15 17 16 15 15
23 19 16 20 17 14 14 12 11 10 12 11 10 11 10 10 10 10 9 13 16 15
21 20 18 18 19 16 16 14 10 12 10 9 11 11 10 8 9 12 9 10 12 12
22 22 22 21 21 20 19 19 18 17 15 12 10 15 13 11 11 12 13 12 11 11
17 21 22 21 22 22 22 20 20 21 21 20 18 15 16 15 14 15 15 14 14 13
11 13 22 23 23 24 23 24 23 22 19 17 17 17 15 16 17 18 17 17 15 17
11 17 15 17 11 16 25 23 22 22 20 19 19 19 17 17 19 18 16 17 17 16
13 13 17 19 23 24 20 23 22 22 23 22 22 20 20 20 22 22 22 23 24 22
12 19 13 22 25 22 22 20 22 23 23 24 24 25 23 23 25 27 28 29 28 27
7 6 6 11 15 20 20 21 24 21 19 19 19 19 23 29 29 30 30 28 29 32
6 6 6 4 2 1 3 8 14 16 16 15 18 25 24 26 26 29 29 27 29 31
3 3 2 1 1 2 1 1 2 3 4 5 9 12 14 16 17 20 25 25 27 27
Wind_Direction
215 213 207 205 205 202 191 186 201 224 219 204 206 217 225 223 226 227 234 235 220 224
217 212 203 188 199 202 212 200 215 220 242 235 219 226 222 220 226 228 236 248 245 238
215 218 209 203 204 208 204 221 248 227 244 238 218 221 226 227 229 232 233 233 239 237
216 215 211 209 217 223 219 232 227 211 229 244 240 221 221 226 228 236 230 237 237 231
217 223 221 219 214 222 223 234 236 225 222 228 240 242 225 228 239 235 252 247 245 238
222 225 228 233 224 226 232 234 243 245 245 253 244 238 242 246 256 257 252 245 245 239
219 222 225 227 233 229 235 242 249 251 253 253 248 242 245 252 255 261 261 262 256 252
243 215 229 225 228 233 229 235 243 243 246 250 247 242 247 256 261 263 263 265 268 265
269 239 239 248 236 244 234 228 234 233 236 243 249 253 254 254 257 261 260 268 271 272
228 241 245 245 251 265 245 238 240 239 235 241 243 249 253 253 253 256 257 264 267 268
189 219 217 222 250 259 248 247 244 247 248 255 256 254 254 252 253 255 257 260 266 272
120 134 184 238 252 263 269 267 258 247 245 251 250 261 257 259 261 262 261 261 261 263
125 127 133 120 125 326 293 273 276 274 272 273 271 265 257 257 263 268 269 268 265 262
176 178 192 172 109 56 73 8 340 349 352 315 279 275 275 268 272 274 272 270 271 268
Height
1594 1595 1596 1597 1600 1603 1604 1606 1607 1608 1608 1609 1611 1612 1612 1613 1613 1614 1615 1616 1617 1616
1591 1594 1596 1597 1599 1602 1603 1603 1605 1606 1607 1608 1608 1610 1611 1611 1612 1613 1614 1614 1615 1616
1588 1591 1593 1595 1597 1599 1600 1601 1603 1603 1605 1606 1607 1608 1609 1610 1611 1611 1612 1612 1612 1612
1586 1588 1591 1592 1594 1597 1598 1600 1601 1603 1604 1605 1606 1607 1607 1608 1608 1609 1610 1610 1609 1609
1583 1587 1589 1590 1591 1594 1597 1598 1600 1601 1603 1603 1604 1605 1606 1606 1607 1607 1608 1608 1608 1607
1581 1583 1585 1588 1590 1592 1595 1596 1598 1598 1600 1600 1601 1602 1603 1604 1606 1606 1606 1607 1607 1607
1576 1577 1580 1584 1587 1589 1592 1593 1594 1594 1596 1597 1599 1599 1601 1602 1602 1604 1605 1605 1605 1605
1573 1573 1576 1579 1582 1585 1587 1589 1591 1592 1592 1594 1594 1595 1597 1598 1599 1600 1602 1602 1601 1601
1569 1571 1573 1574 1578 1582 1584 1584 1586 1585 1588 1589 1590 1592 1593 1594 1595 1596 1596 1598 1598 1598
1566 1571 1573 1574 1579 1580 1580 1579 1581 1582 1582 1584 1585 1587 1588 1589 1590 1590 1591 1591 1593 1593
1566 1568 1569 1573 1577 1577 1573 1573 1575 1578 1579 1579 1580 1580 1582 1584 1584 1584 1584 1585 1587 1587
1566 1566 1568 1571 1572 1571 1570 1569 1571 1571 1573 1574 1574 1574 1574 1578 1578 1578 1578 1579 1579 1580
1570 1569 1568 1569 1570 1570 1569 1570 1569 1569 1568 1567 1567 1568 1569 1571 1573 1571 1571 1571 1572 1573
1571 1570 1570 1571 1570 1569 1569 1568 1567 1565 1563 1563 1563 1563 1564 1564 1564 1565 1564 1563 1563 1565